Weather History for Belmar-Farmingdale, NJ

Change the Weather History Date:

Wednesday, April 17, 2013

  Actual Average Record
Temperature  
Mean Temperature 58 °F -  
Max Temperature 66 °F 58 °F 93 °F (2002)
Min Temperature 51 °F 42 °F 33 °F (2005)
Degree Days  
Heating Degree Days 6    
Growing Degree Days 8 (Base 50)    
Moisture  
Dew Point 47 °F    
Average Humidity 66    
Maximum Humidity 94    
Minimum Humidity 42    
Precipitation  
Precipitation 0.00 in - - ()
Sea Level Pressure  
Sea Level Pressure 30.20 in    
Wind  
Wind Speed 7 mph (SSW)    
Max Wind Speed 15 mph    
Max Gust Speed 16 mph    
Visibility 10 miles    
Events      
Averages and records for this station are not official NWS values.
T = Trace of Precipitation, MM = Missing Value Source: NWS Daily Summary

Daily Weather History Graph

Daily Weather History Graph

Search for Another Location

Airport:

Trip Planner

Search our weather history database for the weather conditions in past years. The results will help you decide how hot, cold, wet, or windy it might be!

Date:

Astronomy

Apr. 17, 2013 Rise Set
Actual Time 6:15 AM EDT 7:37 PM EDT
Civil Twilight 5:46 AM EDT 8:05 PM EDT
Nautical Twilight 5:12 AM EDT 8:39 PM EDT
Astronomical Twilight 4:37 AM EDT 9:15 PM EDT
Moon 11:26 AM EDT (4/17) 1:13 AM EDT (4/17)
Length of Visible Light 14h 18m
Length of Day
13h 22m
Waxing Crescent, 42% of the Moon is Illuminated
Apr 17
Waxing Crescent
Apr 18
First Quarter
Apr 25
Full
May 2
Last Quarter
May 9
New

Hourly Weather History & Observations

Time (EDT) Temp. Dew Point Humidity Pressure Visibility Wind Dir Wind Speed Gust Speed Precip Events Conditions
12:15 AM 59.0 °F 53.6 °F 82% 30.17 in 10.0 mi SW 9.2 mph - N/A   Clear
12:35 AM 59.0 °F 53.6 °F 82% 30.16 in 10.0 mi SW 8.1 mph - N/A   Clear
12:55 AM 59.0 °F 53.6 °F 82% 30.16 in 10.0 mi SW 9.2 mph - N/A   Scattered Clouds
1:15 AM 59.0 °F 53.6 °F 82% 30.16 in 10.0 mi SW 10.4 mph - N/A   Clear
1:35 AM 59.0 °F 53.6 °F 82% 30.16 in 10.0 mi SW 8.1 mph - N/A   Scattered Clouds
1:55 AM 59.0 °F 53.6 °F 82% 30.15 in 10.0 mi SW 9.2 mph - N/A   Partly Cloudy
2:15 AM 59.0 °F 53.6 °F 82% 30.15 in 10.0 mi SW 9.2 mph - N/A   Mostly Cloudy
2:35 AM 59.0 °F 53.6 °F 82% 30.15 in 10.0 mi SW 8.1 mph - N/A   Overcast
2:55 AM 59.0 °F 53.6 °F 82% 30.14 in 10.0 mi SW 8.1 mph - N/A   Overcast
3:15 AM 59.0 °F 53.6 °F 82% 30.13 in 10.0 mi SW 6.9 mph - N/A   Overcast
3:35 AM 59.0 °F 53.6 °F 82% 30.13 in 10.0 mi WSW 6.9 mph - N/A   Overcast
3:55 AM 59.0 °F 53.6 °F 82% 30.13 in 10.0 mi WSW 6.9 mph - N/A   Mostly Cloudy
4:15 AM 57.2 °F 53.6 °F 88% 30.13 in 10.0 mi WSW 8.1 mph - N/A   Scattered Clouds
4:35 AM 57.2 °F 53.6 °F 88% 30.13 in 10.0 mi West 6.9 mph - N/A   Mostly Cloudy
4:55 AM 57.2 °F 53.6 °F 88% 30.13 in 10.0 mi West 4.6 mph - N/A   Partly Cloudy
5:15 AM 57.2 °F 53.6 °F 88% 30.13 in 10.0 mi WNW 4.6 mph - N/A   Scattered Clouds
5:35 AM 57.2 °F 53.6 °F 88% 30.12 in 10.0 mi Calm Calm - N/A   Overcast
5:55 AM 57.2 °F 55.4 °F 94% 30.13 in 9.0 mi Calm Calm - N/A   Mostly Cloudy
6:15 AM 57.2 °F 55.4 °F 94% 30.13 in 10.0 mi SW 3.5 mph - N/A   Scattered Clouds
6:35 AM 57.2 °F 55.4 °F 94% 30.14 in 10.0 mi SSW 5.8 mph - N/A   Mostly Cloudy
6:55 AM 57.2 °F 55.4 °F 94% 30.15 in 10.0 mi WSW 3.5 mph - N/A   Overcast
7:15 AM 57.2 °F 55.4 °F 94% 30.17 in 10.0 mi West 4.6 mph - N/A   Overcast
7:35 AM 57.2 °F 55.4 °F 94% 30.18 in 9.0 mi West 3.5 mph - N/A   Overcast
7:55 AM 57.2 °F 55.4 °F 94% 30.19 in 10.0 mi NW 5.8 mph - N/A   Overcast
8:15 AM 57.2 °F 55.4 °F 94% 30.20 in 10.0 mi North 9.2 mph - N/A   Overcast
8:35 AM 57.2 °F 51.8 °F 82% 30.21 in 10.0 mi NNW 11.5 mph - N/A   Overcast
8:55 AM 57.2 °F 50.0 °F 77% 30.21 in 10.0 mi North 11.5 mph - N/A   Overcast
9:15 AM 57.2 °F 48.2 °F 72% 30.22 in 10.0 mi North 9.2 mph 16.1 mph N/A   Overcast
9:35 AM 57.2 °F 48.2 °F 72% 30.22 in 10.0 mi North 12.7 mph - N/A   Overcast
10:15 AM 60.8 °F 46.4 °F 59% 30.23 in 10.0 mi North 10.4 mph - N/A   Overcast
10:35 AM 60.8 °F 44.6 °F 55% 30.23 in 10.0 mi North 11.5 mph - N/A   Overcast
10:55 AM 60.8 °F 42.8 °F 52% 30.23 in 10.0 mi North 11.5 mph - N/A   Overcast
11:15 AM 60.8 °F 42.8 °F 52% 30.22 in 10.0 mi NNE 9.2 mph - N/A   Overcast
11:35 AM 62.6 °F 44.6 °F 52% 30.22 in 10.0 mi North 8.1 mph - N/A   Overcast
11:55 AM 62.6 °F 42.8 °F 48% 30.22 in 10.0 mi North 3.5 mph - N/A   Overcast
12:15 PM 64.4 °F 44.6 °F 49% 30.22 in 10.0 mi NNW 4.6 mph - N/A   Overcast
12:35 PM 64.4 °F 44.6 °F 49% 30.21 in 10.0 mi NW 6.9 mph - N/A   Mostly Cloudy
12:55 PM 64.4 °F 44.6 °F 49% 30.21 in 10.0 mi NE 3.5 mph - N/A   Scattered Clouds
1:15 PM 66.2 °F 44.6 °F 46% 30.21 in 10.0 mi Calm Calm - N/A   Clear
1:35 PM 64.4 °F 46.4 °F 52% 30.20 in 10.0 mi ESE 8.1 mph - N/A   Clear
1:55 PM 66.2 °F 46.4 °F 49% 30.20 in 10.0 mi ENE 3.5 mph - N/A   Clear
2:15 PM 66.2 °F 46.4 °F 49% 30.19 in 10.0 mi East 8.1 mph - N/A   Clear
2:35 PM 66.2 °F 44.6 °F 46% 30.20 in 10.0 mi East 8.1 mph - N/A   Clear
2:55 PM 66.2 °F 44.6 °F 46% 30.21 in 10.0 mi ESE 11.5 mph - N/A   Clear
3:15 PM 66.2 °F 44.6 °F 46% 30.20 in 10.0 mi ESE 11.5 mph - N/A   Clear
3:35 PM 64.4 °F 44.6 °F 49% 30.20 in 10.0 mi East 15.0 mph - N/A   Clear
3:55 PM 64.4 °F 42.8 °F 45% 30.20 in 10.0 mi East 9.2 mph - N/A   Clear
4:35 PM 64.4 °F 42.8 °F 45% 30.21 in 10.0 mi East 9.2 mph - N/A   Clear
4:55 PM 64.4 °F 42.8 °F 45% 30.21 in 10.0 mi ESE 6.9 mph - N/A   Clear
5:15 PM 62.6 °F 42.8 °F 48% 30.22 in 10.0 mi ESE 8.1 mph - N/A   Clear
5:35 PM 62.6 °F 39.2 °F 42% 30.22 in 10.0 mi ESE 8.1 mph - N/A   Clear
5:55 PM 62.6 °F 41.0 °F 45% 30.23 in 10.0 mi ESE 6.9 mph - N/A   Clear
6:15 PM 62.6 °F 41.0 °F 45% 30.22 in 10.0 mi SE 8.1 mph - N/A   Clear
6:35 PM 60.8 °F 42.8 °F 52% 30.22 in 10.0 mi ESE 6.9 mph - N/A   Clear
6:55 PM 59.0 °F 41.0 °F 51% 30.23 in 10.0 mi SE 8.1 mph - N/A   Clear
7:15 PM 59.0 °F 41.0 °F 51% 30.24 in 10.0 mi South 4.6 mph - N/A   Clear
7:35 PM 57.2 °F 39.2 °F 51% 30.24 in 10.0 mi SSE 6.9 mph - N/A   Clear
7:55 PM 57.2 °F 39.2 °F 51% 30.25 in 10.0 mi SSE 5.8 mph - N/A   Clear
8:15 PM 55.4 °F 39.2 °F 54% 30.25 in 10.0 mi SSE 4.6 mph - N/A   Clear
8:35 PM 55.4 °F 39.2 °F 54% 30.26 in 10.0 mi SSE 3.5 mph - N/A   Clear
8:55 PM 55.4 °F 39.2 °F 54% 30.26 in 10.0 mi Calm Calm - N/A   Clear
9:15 PM 55.4 °F 39.2 °F 54% 30.27 in 10.0 mi South 3.5 mph - N/A   Clear
9:35 PM 53.6 °F 39.2 °F 58% 30.28 in 10.0 mi Calm Calm - N/A   Clear
9:55 PM 53.6 °F 41.0 °F 62% 30.28 in 10.0 mi Calm Calm - N/A   Clear
10:15 PM 53.6 °F 41.0 °F 62% 30.28 in 10.0 mi Calm Calm - N/A   Clear
10:35 PM 53.6 °F 41.0 °F 62% 30.28 in 10.0 mi Calm Calm - N/A   Clear
10:55 PM 51.8 °F 39.2 °F 62% 30.28 in 10.0 mi South 3.5 mph - N/A   Clear
11:15 PM 51.8 °F 39.2 °F 62% 30.28 in 10.0 mi South 3.5 mph - N/A   Clear
11:35 PM 51.8 °F 39.2 °F 62% 30.29 in 10.0 mi SSW 3.5 mph - N/A   Clear
11:55 PM 51.8 °F 39.2 °F 62% 30.30 in 10.0 mi Calm Calm - N/A   Clear